Location: Basse Occidentale du Courleau
(48.3833°N, 4.8333°W)
Time: 19:05:33
(UTC+00:00)

Cosmos 1703 - Pass Details

Date: 05 July 2020
Orbit: 525 x 539 km, 82.5° (Epoch: 05 August)

Event Time Altitude Azimuth Distance (km) Brightness Sun altitude
Exits shadow 21:50:55 - 202° (SSW) 2,646 6.5 -11.1°
Reaches altitude 10° 21:53:05 10° 208° (SSW) 1,764 5.6 -11.3°
Maximum altitude 21:56:50 48° 283° (WNW) 698 4.2 -11.7°
Drops below altitude 10° 22:00:38 10° 359° (N) 1,780 6.9 -12.0°
Sets 22:02:51 0° 5° (N) 2,675 7.7 -12.2°
